Location: Table Mountain
(47.2500°N, 120.5778°W)
Time: 23:52:55
(UTC-07:00)

ISS - Pass Details

Date: 08 October 2017
Orbit: 401 x 408 km, 51.6° (Epoch: 21 October)

Event Time Altitude Azimuth Distance (km) Brightness Sun altitude
Rises 19:54:34 0° 293° (WNW) 2,323 1.6 -15.6°
Reaches altitude 10° 19:56:40 10° 298° (WNW) 1,463 0.1 -16.0°
Maximum altitude 19:59:54 56° 18° (NNE) 489 -3.6 -16.5°
Enters shadow 20:00:39 43° 68° (ENE) 584 -3.5 -16.6°
